GFSSW_925_rhum_171.txt.gz
RH
91 84 87 94 95 92 95 66 67 67 60 57 54 45 36 38 35 36 50 70 72 59 38 34 30 28 25 27 27 24 17 13 17 18 20 22 24 22 21 22 20 19 20 25 29
71 80 90 95 95 86 80 62 64 56 52 46 45 35 31 30 24 28 54 69 56 35 30 28 23 21 24 27 24 23 18 19 24 23 22 23 26 24 25 21 20 20 22 25 25
81 80 92 88 92 90 89 62 56 50 47 41 36 34 33 31 23 26 34 34 32 32 31 29 23 20 24 23 25 24 21 26 28 30 28 26 28 25 26 26 21 19 18 24 26
78 82 92 92 94 94 76 58 52 48 45 42 39 31 28 35 26 30 34 31 31 30 29 26 20 20 22 23 23 27 27 27 31 29 27 27 28 26 25 24 22 21 20 22 23
91 94 86 82 85 87 65 54 49 47 45 42 36 30 30 25 31 35 36 34 32 30 27 23 20 21 21 22 21 24 26 26 25 26 24 24 26 26 26 21 19 20 20 21 20
82 77 78 69 59 53 50 48 44 42 42 40 35 31 25 29 35 35 36 33 34 28 27 24 24 21 23 24 25 24 26 24 23 23 22 25 20 23 17 17 18 19 20 18 19
67 53 47 46 43 41 40 39 37 36 33 30 30 28 29 37 34 32 33 33 35 31 28 30 28 22 21 25 23 21 21 20 21 21 20 23 18 19 14 15 20 17 16 17 17
52 49 45 43 39 37 35 36 32 30 25 23 28 27 33 34 33 30 31 27 29 33 32 34 28 26 24 22 19 18 20 18 22 22 22 23 15 9 15 17 18 16 15 15 16
56 48 39 37 36 36 34 30 27 24 22 22 26 23 29 30 30 32 34 30 25 27 27 25 24 26 24 26 22 18 19 16 16 23 24 23 20 12 13 16 17 16 14 14 13
55 46 37 34 34 34 32 33 27 30 28 28 26 24 28 32 34 34 33 32 24 22 24 23 21 27 24 66 60 26 16 14 16 16 27 26 21 15 12 13 14 15 14 14 13
42 38 36 33 30 30 33 32 26 24 31 37 33 29 31 33 30 30 34 30 19 20 29 23 34 43 31 30 26 24 28 26 18 21 36 25 24 20 17 16 17 17 16 15 14
36 35 31 28 27 28 38 36 55 36 29 27 26 30 33 35 28 30 31 21 18 24 22 34 39 34 37 37 37 32 30 25 28 34 36 30 33 22 15 16 16 18 21 22 23
31 32 26 25 26 39 44 54 44 43 21 24 30 30 33 29 33 35 32 28 26 27 29 38 39 37 38 38 39 38 39 42 49 43 31 36 20 16 18 17 17 17 18 20 28
24 22 24 25 31 44 47 49 42 34 46 25 26 28 26 28 32 32 36 34 30 32 35 39 37 39 40 40 42 67 45 47 52 66 50 37 53 23 17 17 18 20 23 29 35
26 24 22 19 40 40 60 42 43 43 99 25 30 27 26 31 35 29 35 29 34 37 37 47 40 40 42 47 44 49 52 54 62 79 84 45 69 25 16 21 23 23 24 31 36
26 24 25 36 44 51 46 47 44 84 64 48 29 32 27 28 31 28 28 31 35 35 34 41 40 41 47 49 51 49 55 53 61 66 94 50 45 33 21 26 27 27 25 28 31
28 24 22 33 46 47 44 42 93 78 23 45 41 33 36 32 28 32 32 37 42 64 72 38 45 43 44 50 49 56 96 99 92 98 54 63 58 31 23 26 30 32 28 29 26
28 26 33 38 46 47 48 38 88 23 26 36 37 35 37 38 35 36 32 37 33 40 38 51 70 71 50 56 67 73 96 94 56 60 49 66 74 48 25 27 28 29 28 27 26
30 38 55 51 49 46 29 98 29 30 28 38 32 78 32 36 43 66 35 40 42 36 46 36 49 49 54 54 64 78 96 61 94 77 68 52 49 31 27 25 30 34 32 32 32
42 35 49 41 40 46 37 41 36 37 35 35 32 30 69 45 79 43 51 38 42 41 37 46 67 38 58 57 59 72 55 90 92 70 55 37 29 90 74 62 43 40 30 24 24
44 29 44 42 38 31 73 42 39 39 44 39 28 28 26 36 38 38 49 43 39 44 38 38 44 48 47 57 64 71 79 80 79 62 74 53 70 86 100 84 54 43 32 29 29
38 48 42 36 51 38 44 37 41 44 46 41 36 31 26 31 39 53 47 46 36 38 38 41 43 48 33 45 46 51 62 47 60 71 64 70 77 38 54 43 37 34 31 32 34
31 32 42 51 67 37 45 46 39 40 38 40 36 37 35 32 37 34 40 41 38 40 37 40 43 46 43 48 46 54 52 46 44 52 72 60 83 34 33 34 37 39 38 37 33
40 76 42 32 33 27 31 38 45 50 45 41 38 40 39 39 37 36 36 49 45 42 50 46 41 40 32 29 34 48 46 50 49 74 54 74 78 45 51 72 53 47 39 35 33
46 55 48 64 40 32 35 33 38 42 43 44 43 41 36 36 37 41 38 46 54 50 52 48 56 42 42 41 41 42 40 38 62 59 74 82 80 55 49 61 55 33 33 32 31
47 47 40 40 39 35 41 38 35 35 37 40 44 33 36 37 32 38 36 38 38 53 62 52 59 52 55 41 43 47 41 42 41 40 48 50 55 36 31 27 28 33 34 34 31
55 46 43 56 44 43 42 37 38 36 36 33 34 36 40 38 34 33 32 31 34 46 58 59 58 53 68 43 44 49 36 37 38 38 37 46 37 28 32 37 36 36 34 32 30

GFSSW_925_rhum_177.txt.gz
RH
82 84 88 90 92 79 86 82 70 73 67 63 57 52 45 39 40 41 61 67 65 45 35 30 28 26 25 30 29 30 32 36 38 31 30 25 29 27 24 24 23 21 25 34 35
80 85 90 89 88 86 87 86 71 68 61 56 40 38 37 33 29 36 48 56 44 32 30 31 27 24 31 27 29 38 47 36 35 34 35 30 30 31 29 33 27 23 27 29 29
84 91 83 87 88 86 89 79 64 58 53 48 35 32 29 32 32 33 42 40 30 30 29 30 27 22 28 26 27 31 40 30 37 37 33 32 32 34 31 32 31 28 28 30 27
98 92 92 87 85 89 77 60 54 47 42 37 34 28 29 30 29 32 32 30 28 27 27 26 26 22 31 29 24 34 29 32 33 30 30 33 30 33 33 33 28 27 23 27 32
89 89 73 75 75 69 58 53 49 46 42 39 31 27 30 39 38 30 30 28 26 26 28 29 29 29 28 26 28 31 29 28 26 27 25 24 29 31 32 29 28 25 25 28 28
71 63 63 59 56 53 49 47 47 47 44 34 29 30 36 45 32 30 30 24 28 26 29 29 30 28 28 30 32 26 27 25 25 24 24 26 27 25 22 22 23 20 22 23 26
44 42 41 41 42 43 43 38 39 36 31 29 29 27 36 41 32 29 27 26 24 28 32 28 28 28 26 28 23 21 23 26 24 22 25 26 17 29 22 21 20 22 23 23 22
43 41 38 35 36 35 32 30 25 23 26 26 28 25 37 29 29 27 25 23 24 20 20 22 25 29 26 22 21 22 24 26 25 24 26 20 25 19 19 20 24 23 23 23 22
39 38 37 36 33 31 28 25 28 26 23 26 25 26 34 28 30 29 25 29 22 22 22 22 23 32 38 53 52 36 28 23 25 24 26 23 30 25 24 25 26 26 26 26 24
38 35 33 30 30 30 29 30 27 26 27 26 25 31 33 36 31 29 26 28 25 24 26 31 49 53 52 73 56 38 31 30 26 36 38 39 39 33 29 30 31 29 28 31 31
35 35 33 29 25 24 28 31 35 40 31 41 38 39 34 30 28 29 30 28 21 26 34 34 62 66 46 42 37 34 35 42 35 42 46 43 47 40 35 32 22 30 35 43 44
28 25 29 35 26 32 35 54 59 36 39 31 31 32 29 30 37 34 29 29 34 38 39 58 60 41 41 37 39 41 42 49 46 48 54 54 50 37 29 21 27 33 41 47 47
26 24 23 28 34 27 37 54 45 38 38 31 30 35 35 31 40 40 38 35 34 48 57 64 45 36 38 49 54 58 51 57 63 68 51 51 32 35 22 28 31 34 39 44 45
22 21 22 24 24 40 41 42 39 41 67 36 35 28 29 30 39 29 34 37 38 41 46 46 37 41 41 52 57 61 56 59 69 74 53 54 50 40 29 32 37 41 46 44 42
22 21 24 24 36 39 44 37 35 46 45 31 33 23 26 36 32 32 30 34 39 39 46 54 44 48 55 56 52 63 57 63 73 92 89 57 80 45 34 37 44 46 41 44 40
22 20 24 32 30 44 42 39 48 61 34 37 29 34 33 33 29 31 31 33 36 38 48 48 41 50 55 49 52 57 81 73 75 89 92 63 64 55 40 41 44 42 40 38 39
23 26 22 36 46 44 38 55 64 58 27 37 47 37 38 39 33 38 39 45 53 44 84 53 54 48 47 59 65 74 77 60 54 85 71 86 77 52 38 36 38 37 38 42 42
31 39 40 38 40 42 51 50 43 27 35 32 37 42 44 46 45 48 41 70 46 55 84 69 35 70 55 63 73 85 78 65 12 78 82 78 66 50 38 46 45 38 43 43 42
34 48 43 36 35 44 52 77 55 44 34 36 38 67 43 43 53 65 47 66 50 48 59 60 57 54 56 59 66 70 97 74 77 92 90 81 66 57 35 40 52 52 51 49 47
37 38 39 28 29 49 63 61 50 40 38 36 42 34 59 52 67 48 60 43 49 44 46 52 40 48 67 63 63 75 71 73 91 35 69 72 70 70 56 41 51 57 55 54 52
43 58 34 30 46 62 79 54 48 40 50 44 35 30 30 42 41 51 58 48 41 45 42 42 54 46 52 76 83 84 92 84 78 88 74 92 66 72 55 63 53 55 55 56 56
49 68 34 37 65 76 65 43 41 49 46 42 40 35 32 37 45 64 53 54 37 39 44 48 65 74 57 50 55 70 77 72 71 61 92 91 76 52 58 59 54 54 54 53 53
61 57 48 47 76 68 45 46 42 46 41 41 39 37 35 36 38 39 45 43 40 42 47 48 64 71 54 56 51 57 62 68 65 79 90 84 67 54 59 61 56 60 58 51 52
81 76 81 59 54 51 47 50 50 48 44 40 41 40 40 43 37 42 46 52 45 46 48 50 58 53 60 46 62 65 60 67 68 92 85 81 66 54 50 66 61 50 58 53 53
77 65 62 76 52 41 43 40 52 58 49 45 48 46 41 41 42 47 42 62 57 54 52 59 74 62 62 60 59 58 57 65 75 67 70 65 77 51 59 68 59 53 52 51 49
72 70 63 57 46 41 46 42 43 40 50 48 51 45 45 42 38 43 45 49 58 64 65 64 70 67 73 58 63 71 63 60 57 56 61 51 54 36 39 46 49 50 54 52 54
57 50 69 62 56 59 59 45 42 39 42 40 44 40 42 44 43 42 42 45 52 69 79 77 80 79 87 69 72 78 62 57 55 55 53 66 50 43 37 40 44 49 52 55 55

GFSSW_925_rhum_180.txt.gz
RH
77 77 84 94 91 88 82 75 71 72 72 66 63 55 40 40 41 36 55 59 59 49 33 27 26 25 27 28 29 33 34 36 35 32 32 30 28 30 27 26 24 22 28 35 41
80 88 90 93 89 82 85 75 75 73 67 56 44 38 36 34 35 33 41 53 54 35 31 30 29 26 32 28 31 39 44 36 36 35 34 32 30 37 30 32 28 24 26 34 36
90 92 88 83 81 87 78 72 70 63 56 43 35 31 29 33 31 33 34 41 31 29 28 31 30 25 27 27 29 33 40 35 37 35 32 32 32 33 32 30 31 28 27 29 29
92 95 89 87 78 74 68 60 56 50 45 35 35 29 29 31 24 30 30 28 27 26 26 27 26 25 31 26 27 32 31 35 34 30 29 31 30 30 32 32 28 32 28 28 33
84 75 67 66 66 62 55 51 48 44 40 38 32 29 31 40 35 30 29 28 26 24 28 28 29 28 29 29 30 32 30 30 28 28 25 25 27 28 30 27 28 26 24 26 30
69 59 60 61 56 53 50 49 48 46 40 31 29 30 30 42 32 30 27 23 25 25 29 30 30 29 30 30 31 28 28 27 25 24 27 26 25 25 16 22 22 23 23 24 25
47 46 46 48 47 46 42 44 41 35 30 29 29 27 36 39 30 27 26 25 22 25 28 26 28 26 26 24 23 22 20 26 28 24 25 28 18 29 20 21 22 24 24 24 25
42 37 37 39 38 35 33 27 25 25 27 26 28 24 36 28 28 24 22 21 23 22 21 22 22 30 24 23 23 21 27 27 28 27 25 22 24 17 20 29 30 28 29 28 27
40 37 35 34 32 30 26 29 28 24 26 26 26 26 32 27 27 26 27 28 22 21 22 23 25 39 42 49 47 40 31 23 23 40 36 28 33 26 28 31 33 34 31 37 40
37 35 31 29 30 27 30 27 25 25 24 26 26 26 30 36 32 28 26 25 27 24 27 39 49 47 53 67 48 38 27 28 28 44 43 41 42 34 32 37 35 30 38 48 49
34 32 32 26 27 30 30 34 26 38 32 39 37 38 33 29 29 26 30 26 23 32 34 49 58 61 45 42 36 34 35 39 38 51 43 38 47 42 38 28 34 38 48 51 50
26 25 32 30 23 28 34 56 54 35 37 32 30 32 30 33 31 32 28 29 35 45 43 53 55 42 42 41 40 44 43 44 47 48 52 57 55 37 28 32 32 39 46 48 50
23 24 22 29 30 30 39 53 45 36 37 28 32 32 34 32 38 38 37 32 40 46 58 50 44 38 40 52 50 58 51 59 61 68 47 62 34 34 30 32 36 39 45 44 46
22 24 22 24 25 36 39 41 38 41 63 32 33 28 28 31 34 29 34 35 40 46 47 45 38 42 43 55 58 41 58 60 67 72 44 59 54 33 32 34 40 51 46 52 52
21 22 25 21 29 34 39 39 34 39 47 26 30 24 30 36 32 30 32 35 41 43 41 48 46 51 55 54 53 52 60 66 75 93 90 60 82 45 36 32 41 46 44 44 45
20 19 23 30 29 44 40 38 47 60 30 39 34 40 31 36 32 37 34 37 37 48 51 49 43 51 56 51 56 64 65 77 84 88 79 67 67 63 40 38 42 40 42 43 43
30 30 22 32 40 43 39 47 64 51 26 34 43 40 39 47 30 48 42 50 48 37 69 62 58 51 51 60 64 61 63 53 53 77 64 88 81 58 36 39 40 39 42 48 46
36 32 32 34 39 41 46 44 39 31 34 31 39 40 40 47 49 46 51 73 47 58 81 64 33 65 59 65 69 93 65 65 13 41 68 76 74 49 42 48 50 43 50 48 48
27 40 32 33 32 44 43 74 42 40 34 35 35 62 43 41 50 57 55 70 54 51 46 55 43 56 60 63 60 62 88 70 82 90 87 79 62 55 51 41 43 49 52 51 52
32 39 36 30 40 37 63 60 50 43 41 37 33 32 56 51 58 47 59 44 48 44 51 53 36 50 69 64 65 72 68 60 82 21 37 60 66 72 53 47 42 47 53 54 54
42 56 39 32 42 59 72 58 47 42 49 41 33 30 34 39 40 50 50 44 43 45 43 51 48 39 56 75 76 88 91 84 76 82 61 77 61 66 66 62 48 48 56 58 55
53 57 40 43 57 76 61 44 41 47 48 42 38 34 31 40 44 64 53 48 44 44 47 47 66 72 53 52 61 64 61 69 69 45 93 88 75 48 61 58 58 56 56 56 53
61 63 50 45 64 62 48 46 43 48 45 43 41 37 36 37 36 43 47 43 43 44 47 48 60 70 53 53 53 64 72 70 68 81 93 82 66 45 67 55 66 63 59 56 53
81 70 76 65 58 54 53 48 39 47 43 41 41 40 41 42 38 41 45 50 45 48 51 48 57 52 62 49 62 66 62 76 70 92 85 80 68 50 54 64 60 57 55 56 59
77 63 67 74 51 46 44 53 56 52 51 45 46 47 45 45 44 47 46 64 57 53 53 57 66 67 65 61 57 55 58 65 82 70 65 60 74 47 57 66 55 52 52 55 56
67 65 69 62 50 42 48 46 51 51 53 50 54 46 49 44 44 49 49 54 60 65 64 69 72 75 80 65 68 75 69 66 61 58 65 53 54 37 36 44 48 51 52 57 58
65 56 66 67 61 62 62 48 46 42 48 44 48 43 46 47 41 42 43 46 50 70 76 77 78 81 91 71 76 77 64 66 67 63 56 69 51 44 47 42 43 46 52 53 58

GFSSW_925_rhum_186.txt.gz
RH
74 74 82 78 88 85 74 72 73 71 74 70 53 42 44 36 37 37 48 56 64 64 39 29 26 27 27 30 34 29 30 33 33 33 30 32 30 30 32 30 29 28 33 36 49
73 81 86 84 86 76 70 63 74 69 65 49 40 34 31 32 30 31 33 56 38 35 34 32 27 28 29 26 34 36 34 31 35 35 33 33 33 35 30 35 28 30 29 33 41
81 99 95 93 79 74 62 64 66 59 48 38 36 30 30 30 30 30 31 30 27 29 30 32 31 26 25 29 36 36 37 38 39 35 32 32 30 32 33 30 33 33 35 32 30
94 91 82 76 73 63 63 58 53 47 39 36 32 29 29 33 22 28 26 25 25 26 29 29 27 24 31 32 33 38 39 37 36 30 27 28 30 24 30 32 30 31 31 30 29
76 72 69 65 62 56 54 48 45 40 35 32 29 31 28 34 34 27 24 23 24 26 29 28 27 26 30 33 32 34 33 32 31 28 27 26 23 26 21 23 24 24 25 31 31
71 65 61 57 55 53 50 48 45 39 31 30 29 29 26 33 29 25 23 23 24 26 28 31 28 27 31 30 33 34 33 30 27 28 27 27 24 23 20 28 29 31 32 32 34
56 56 53 51 49 46 46 44 37 30 28 27 27 24 32 33 26 26 23 24 23 23 26 27 28 23 24 26 25 28 25 27 33 38 26 33 18 22 25 31 35 36 35 42 43
41 41 42 42 39 36 31 27 28 28 26 27 27 24 28 24 24 24 21 21 24 24 24 26 25 38 30 25 34 25 28 22 31 45 31 23 17 20 31 36 36 33 43 48 46
34 33 34 34 30 27 29 28 25 27 26 25 24 22 25 21 24 26 28 27 23 23 26 21 25 40 36 34 38 36 24 24 24 49 44 30 22 23 31 37 32 34 46 50 50
32 34 30 28 30 31 29 24 21 23 22 24 26 23 28 33 30 28 26 25 26 23 28 34 41 39 53 66 50 29 21 22 24 43 49 41 38 33 29 37 31 39 46 49 52
26 29 28 27 28 27 26 27 24 34 31 37 38 36 34 29 28 29 31 27 26 44 41 42 51 57 48 47 36 34 31 32 31 58 48 38 47 36 36 33 36 39 46 49 51
27 26 26 24 26 22 26 51 57 36 30 32 30 31 32 34 30 34 28 27 38 42 39 44 52 43 45 50 47 43 38 32 41 53 52 53 52 46 35 34 36 39 44 52 56
23 24 24 24 24 26 35 50 43 35 30 22 32 32 32 31 38 39 40 34 33 41 53 44 42 42 43 54 41 61 49 56 60 66 52 66 30 35 33 36 39 40 42 46 50
23 23 22 22 21 27 38 40 36 40 60 27 29 30 31 35 32 31 34 34 42 38 47 53 43 45 51 60 53 28 65 64 69 63 42 55 38 28 36 39 40 41 45 45 47
27 21 25 25 26 30 36 36 34 38 47 27 33 27 30 35 37 28 32 40 47 50 37 48 50 55 63 64 53 63 71 72 79 93 88 58 77 40 38 43 42 41 40 41 45
30 22 25 24 25 39 36 38 39 61 35 32 37 45 28 41 38 45 33 37 43 47 56 56 49 56 60 70 66 62 58 64 80 87 66 72 76 57 43 44 37 42 42 43 48
33 27 20 29 42 41 40 38 65 49 23 31 40 45 38 46 32 51 45 53 48 28 55 50 60 60 58 57 62 46 58 55 51 65 56 88 87 53 38 36 42 44 46 48 52
35 25 26 34 39 45 32 40 28 25 25 33 42 38 36 50 44 46 51 64 47 54 74 51 31 61 65 67 60 84 62 63 14 42 54 78 74 54 45 45 50 42 45 46 46
29 31 28 37 43 44 38 57 32 32 31 37 29 53 30 39 43 48 52 69 51 50 26 44 30 60 69 70 55 71 62 56 76 88 82 72 48 41 50 44 52 42 40 44 48
31 36 42 40 44 28 50 45 44 44 38 36 22 24 39 44 43 32 47 41 45 47 50 40 34 52 76 66 73 67 62 61 80 21 32 55 41 56 52 55 53 40 38 41 51
38 42 45 43 29 51 58 51 48 44 48 36 30 34 34 31 34 41 38 38 46 47 48 45 42 37 60 78 76 92 94 84 71 75 59 58 56 61 62 69 60 50 45 47 58
51 50 49 36 48 76 52 43 40 48 51 41 36 31 32 38 40 59 42 43 45 46 46 48 52 58 41 54 54 65 58 59 70 52 91 85 70 43 55 64 63 54 53 60 62
68 68 57 43 59 52 51 48 46 46 47 46 42 36 36 38 32 42 46 46 49 46 51 49 58 73 58 57 54 72 74 61 64 77 90 71 69 40 59 45 56 61 61 62 62
72 64 68 68 56 43 40 37 39 48 44 43 42 40 39 40 40 40 46 52 46 47 54 45 55 55 70 53 59 64 67 76 64 91 77 80 58 45 49 57 56 62 63 64 58
75 60 70 70 50 50 46 43 42 39 51 45 44 44 40 48 47 48 48 64 57 53 58 53 62 63 61 58 56 54 54 78 82 68 64 69 70 50 55 65 61 54 55 54 54
64 62 73 66 54 46 50 54 50 50 54 51 50 45 49 47 48 52 56 62 62 68 62 73 70 76 83 69 76 82 73 63 68 70 63 54 58 42 44 49 52 52 54 54 54
72 68 65 70 67 57 57 47 50 50 53 46 52 52 52 51 42 41 46 50 54 72 74 80 79 82 88 79 77 72 69 72 73 68 63 76 56 48 50 51 52 50 50 52 52